RH
22 25 14 11 11 13 13 22 56 71 93 80 69 71 87 88 65 89 100 100 67 95 100 98 90 98 79 66 77 70 61 51 41 32 20 13 12 11 10 9 9 9 12 12 12 13 12 12 11
30 28 33 15 10 16 18 32 59 80 98 95 90 98 100 81 79 88 100 100 99 96 100 98 89 84 80 76 67 59 44 33 22 16 14 13 13 12 12 10 10 12 12 11 10 14 14 14 13
42 45 52 33 12 15 29 40 67 90 85 99 100 100 79 64 45 100 100 97 90 90 81 63 49 40 37 30 22 19 16 15 15 16 17 20 21 18 14 14 13 12 12 12 16 17 16 14 13
57 77 61 38 13 12 48 62 82 89 100 97 100 85 64 53 100 100 80 70 65 47 35 25 23 25 26 22 20 22 22 19 20 18 22 24 27 20 22 21 19 17 16 17 18 18 17 20 17
58 73 72 47 17 11 19 56 76 64 88 80 60 85 99 100 100 100 100 77 48 36 26 21 32 49 25 22 24 30 28 32 29 35 47 62 61 37 42 44 28 22 22 22 20 26 34 25 18
100 78 77 52 42 17 14 36 55 77 71 63 71 55 98 100 100 100 91 67 46 32 49 71 95 98 56 26 22 23 26 33 50 49 43 43 50 42 54 58 64 49 26 34 42 68 67 73 49
100 100 88 71 55 18 13 21 33 42 67 100 100 100 100 100 100 94 87 62 56 58 83 65 38 56 94 28 19 22 23 25 27 40 50 65 82 76 57 46 44 38 37 29 73 63 29 32 50
82 96 99 78 50 18 14 19 14 16 24 51 100 100 100 100 82 43 42 40 37 54 56 24 21 25 21 23 20 22 25 24 36 58 73 68 76 57 78 63 54 49 70 47 63 34 36 30 41
99 58 91 87 35 19 14 15 15 15 22 24 66 70 59 66 50 21 30 31 33 53 62 38 21 20 20 23 27 26 36 50 59 61 76 81 87 85 66 49 48 52 60 51 43 43 52 59 62
71 69 100 100 64 36 15 20 41 22 23 27 21 18 20 22 28 17 25 100 72 45 84 82 28 27 29 31 28 33 31 27 36 50 67 73 80 77 57 44 40 37 35 34 41 63 100 98 87
35 76 96 100 99 64 52 31 36 34 37 30 34 30 26 35 31 41 63 67 93 74 28 27 26 31 36 37 33 29 30 38 41 37 37 42 71 81 71 58 45 52 78 68 78 98 100 91 75
31 28 70 88 99 94 65 28 28 44 60 56 45 22 32 24 27 36 29 26 29 44 47 36 40 44 41 35 35 46 64 62 62 54 52 51 91 61 50 60 50 45 53 63 66 97 99 77 72
31 30 33 86 95 100 96 48 43 46 51 45 46 66 85 76 61 22 20 22 38 34 36 44 68 66 62 38 36 62 72 82 76 80 84 84 61 51 56 60 43 48 88 100 100 78 72 85 88
31 29 28 61 87 75 74 98 88 60 64 68 65 55 67 67 44 25 24 26 28 45 66 75 99 86 64 40 72 70 60 57 85 82 80 70 73 57 46 49 77 100 95 77 62 54 48 87 100
34 51 32 28 51 78 86 69 88 81 81 64 67 63 75 50 44 30 33 37 39 43 82 100 88 83 51 74 61 48 47 65 72 74 72 69 72 64 45 57 100 80 68 66 48 28 54 100 99
26 23 28 32 48 62 71 60 53 86 86 69 55 77 93 100 80 64 74 69 74 80 100 100 92 76 80 72 63 58 73 68 83 79 65 72 67 48 40 100 82 83 60 43 53 36 41 81 84
18 21 26 28 31 42 60 60 61 66 73 76 83 99 94 57 33 41 92 94 94 99 100 100 100 92 76 78 78 82 74 79 98 77 61 69 68 56 76 82 65 88 66 59 67 53 54 63 82
20 28 33 44 32 32 33 49 89 57 52 41 48 46 26 35 64 100 90 90 100 100 100 100 99 98 100 88 94 83 78 88 57 55 60 60 50 68 57 98 100 100 79 62 70 83 72 64 72
14 16 22 23 29 35 46 28 41 38 20 27 29 33 96 85 100 99 39 54 55 62 99 100 100 100 100 100 75 76 51 40 35 37 44 47 34 41 75 98 87 63 65 63 81 72 86 86 75
18 15 24 24 23 22 27 25 22 21 38 50 46 61 85 50 43 42 55 53 44 61 68 74 86 100 82 61 36 37 36 32 37 31 32 37 53 65 100 84 64 70 66 62 72 81 75 78 86
23 23 22 23 19 27 29 34 29 41 86 91 84 62 60 65 54 69 84 83 90 100 100 100 84 60 55 34 30 27 29 37 42 35 35 40 78 100 79 86 80 83 83 88 73 76 84 85 76
23 31 35 48 42 48 64 42 36 52 59 69 45 58 99 99 93 100 100 100 100 100 100 78 42 36 32 31 29 23 31 28 29 42 55 52 94 68 90 90 78 66 80 81 74 79 83 84 84
27 41 55 61 71 100 97 100 74 67 75 68 62 100 100 100 100 99 100 100 100 100 78 51 34 36 35 32 33 27 26 38 44 44 70 80 72 98 74 90 100 100 89 94 80 92 97 94 80
32 31 50 88 98 100 91 63 100 86 88 100 100 100 100 81 59 77 82 96 96 66 50 49 36 28 37 40 34 25 25 49 68 81 86 84 85 93 87 100 100 100 100 91 83 86 86 88 83
60 46 56 55 40 48 65 49 100 100 100 100 97 90 100 85 100 100 88 72 80 47 42 32 29 30 37 44 33 29 36 77 61 81 96 94 100 85 100 98 100 100 100 92 94 77 84 84 73
76 74 65 43 58 51 50 60 90 92 98 73 77 100 85 74 85 85 54 43 41 35 30 33 34 37 40 39 24 30 38 85 90 95 100 99 100 100 100 100 100 100 100 100 92 88 84 74 64
100 100 100 100 100 70 78 63 51 84 100 100 96 62 85 74 48 33 31 35 39 43 46 54 41 42 44 30 24 55 90 76 72 99 100 100 100 100 100 100 100 100 97 99 95 90 87 73 51
90 86 87 80 96 84 56 60 44 54 73 87 75 68 51 40 32 31 26 26 25 24 27 26 31 34 34 30 33 70 92 100 100 100 100 100 100 100 100 100 100 94 100 98 81 77 69 57 37
49 52 60 51 44 60 47 38 39 79 88 62 60 38 40 40 41 43 48 37 44 32 45 50 34 43 33 27 42 100 100 100 99 100 100 100 100 100 100 100 100 94 94 93 70 57 53 38 21
36 54 46 26 51 24 27 23 50 33 33 38 30 26 26 28 35 36 37 69 54 54 45 56 30 32 27 39 64 96 100 90 100 100 100 100 100 100 100 100 100 97 88 69 55 34 25 15 12
Wind_Speed
19 26 23 19 17 14 14 17 19 17 16 19 20 19 17 17 16 19 21 23 18 18 19 23 25 27 26 29 28 27 29 31 31 32 33 35 35 36 34 34 34 36 35 35 36 38 41 42 43
19 21 27 25 18 13 12 9 17 16 16 17 18 16 18 17 16 20 24 20 14 18 19 16 13 13 17 18 21 23 23 24 27 29 30 29 29 24 26 29 30 33 35 33 37 33 34 37 38
19 22 23 30 24 16 8 6 11 12 17 17 14 13 14 13 20 22 9 11 10 14 15 11 10 11 14 16 18 17 19 21 22 15 14 17 20 20 22 21 23 23 24 25 28 30 30 31 34
20 22 23 25 27 18 6 6 7 10 11 17 12 9 12 15 8 7 14 16 10 8 6 4 5 8 10 11 9 10 11 11 13 18 19 22 22 23 24 23 25 26 23 22 24 25 28 29 33
21 17 19 21 24 19 11 7 10 8 10 12 14 9 12 10 11 12 11 6 5 3 1 2 2 7 6 5 6 9 10 14 20 21 21 22 26 25 29 31 32 31 30 30 32 37 38 38 37
24 15 15 18 19 19 10 5 7 12 11 14 13 15 15 21 13 12 6 4 4 6 3 3 2 8 12 14 14 16 15 16 17 20 22 25 28 31 31 33 35 37 35 33 36 40 44 46 45
19 15 9 13 17 15 13 10 8 7 5 10 15 16 16 13 11 6 5 6 4 3 3 5 7 9 11 17 16 14 17 20 23 23 23 25 28 32 32 34 36 35 36 34 36 34 41 45 52
12 15 11 10 11 7 5 3 6 6 6 5 13 12 15 15 7 4 6 5 6 5 12 12 14 15 16 14 15 18 18 21 22 24 27 31 31 35 40 39 38 38 41 37 36 41 45 49 56
14 15 13 5 7 5 5 2 1 1 6 4 2 7 6 9 8 10 8 10 11 13 16 18 14 16 14 13 18 21 23 22 23 26 30 31 35 37 39 38 38 41 39 44 47 47 48 51 53
17 13 14 10 6 7 3 3 3 2 2 1 2 5 8 10 11 14 13 14 16 17 14 21 15 17 20 19 21 22 25 30 30 30 33 35 39 38 39 40 43 44 44 45 46 47 53 54 61
15 16 14 14 8 11 9 9 3 4 4 4 7 9 10 13 13 15 17 15 11 14 18 21 23 25 25 24 23 28 33 36 36 37 40 44 46 45 46 46 47 48 51 52 53 55 59 56 62
15 17 20 18 17 10 15 13 10 8 4 7 11 11 10 13 16 18 21 21 24 21 24 28 28 30 31 27 27 35 38 38 39 41 44 47 50 50 50 55 56 56 58 57 59 57 64 62 61
12 15 18 19 21 23 14 17 12 11 8 3 8 14 14 17 20 23 20 23 27 26 27 29 30 32 29 30 33 37 40 40 44 48 49 49 53 54 54 56 60 62 65 68 69 67 71 63 64
13 14 18 19 25 24 20 14 21 12 16 14 15 11 15 21 21 21 24 28 28 29 30 31 29 31 33 31 37 39 43 46 46 48 46 50 54 55 58 62 61 63 70 74 77 76 76 67 63
17 15 16 19 23 20 25 18 16 13 16 20 17 20 19 21 23 26 27 28 30 30 33 36 34 32 31 39 41 43 44 45 57 59 52 57 58 56 61 61 70 73 74 75 75 70 65 66 65
20 16 15 11 17 23 23 24 23 17 17 17 14 18 23 25 26 29 26 29 35 34 35 31 34 34 37 40 44 46 50 53 55 56 60 61 62 59 61 63 71 74 85 80 73 62 65 66 65
23 18 16 15 12 13 17 20 19 18 22 19 17 20 22 26 29 28 27 31 33 30 29 31 33 37 39 43 46 49 52 54 58 63 66 66 66 65 66 68 75 77 82 75 65 62 61 64 63
25 23 25 23 23 21 17 12 19 18 17 20 21 26 25 30 29 29 29 34 32 28 29 34 35 39 46 45 50 52 54 60 65 67 66 66 65 67 68 75 79 79 85 74 66 62 65 61 59
24 17 20 18 22 21 20 15 16 19 19 21 22 23 27 26 27 31 25 26 27 28 33 36 39 44 46 50 54 55 53 53 57 63 64 62 63 65 71 76 81 85 75 72 73 66 60 63 63
26 18 21 18 18 18 20 24 20 18 23 25 26 29 34 30 30 28 32 34 32 34 36 39 44 50 50 51 54 55 56 59 61 63 60 58 62 68 72 82 91 79 74 77 74 68 61 59 63
29 25 21 19 17 18 16 28 26 22 23 30 32 32 26 31 28 31 35 36 35 38 42 44 49 50 51 49 58 61 59 65 64 67 59 64 64 70 82 87 90 80 77 82 77 67 62 58 58
30 31 27 22 20 21 22 30 29 29 29 30 30 28 34 32 33 35 37 39 38 42 46 48 49 51 52 56 62 66 65 65 67 70 65 68 68 79 87 89 90 85 83 84 82 68 61 58 58
38 34 26 25 24 24 25 20 35 30 30 31 32 37 37 37 38 38 41 43 43 47 48 48 48 60 62 66 69 76 74 69 73 71 69 71 81 86 94 92 89 85 89 88 87 71 64 61 58
36 35 28 25 25 23 24 16 28 32 36 36 35 36 37 38 38 39 41 44 44 49 50 54 57 61 65 67 74 79 79 74 76 86 77 84 90 96 94 90 90 93 94 94 88 75 67 62 61
34 32 28 27 30 26 28 23 26 35 34 39 38 38 40 43 44 45 47 48 48 51 52 58 63 70 72 78 83 87 84 70 78 85 87 95 94 102 93 94 89 96 99 97 94 80 71 68 65
35 34 33 28 27 28 29 25 30 34 38 39 40 41 43 42 40 40 42 44 51 52 59 63 69 74 74 79 90 88 82 77 84 90 94 100 103 101 92 92 96 99 101 97 96 87 81 77 71
33 32 33 31 31 29 28 28 30 34 41 43 45 46 42 41 41 45 46 56 58 64 69 73 78 80 82 90 96 90 83 84 97 100 103 103 103 98 94 96 99 102 102 99 95 87 86 84 79
34 35 31 31 29 27 25 27 26 36 42 43 46 46 46 45 50 59 57 64 66 70 74 79 84 87 87 94 97 88 87 94 102 103 107 102 104 97 100 103 104 108 102 100 94 88 89 88 84
35 34 39 39 40 37 31 25 33 45 48 49 55 51 56 57 59 65 70 76 79 82 84 93 91 93 92 101 95 87 94 102 102 104 100 109 105 104 105 107 110 104 103 100 95 91 90 90 84
43 45 43 43 42 44 46 23 45 46 46 55 59 63 64 60 66 72 77 78 86 90 94 99 103 102 97 98 93 95 102 110 111 106 113 109 115 107 106 110 112 103 99 97 95 91 87 81 77
Wind_Direction
351 360 351 342 336 306 290 277 255 258 264 264 260 261 258 269 286 288 284 284 274 267 263 271 276 271 272 276 280 281 284 288 288 288 291 290 288 291 294 294 292 292 287 286 282 279 279 280 281
343 351 3 4 346 324 310 266 245 244 250 257 260 261 251 271 284 282 279 276 268 266 266 272 286 288 286 289 291 290 295 296 292 292 291 294 290 299 308 300 293 290 287 290 289 290 285 284 280
350 348 356 0 360 342 321 277 238 241 241 246 260 274 274 272 279 267 266 274 277 283 284 285 306 309 301 302 303 297 295 293 290 293 298 309 330 323 315 316 306 304 302 302 302 298 299 293 289
329 341 357 6 356 350 321 300 234 235 248 250 258 263 280 261 212 237 252 275 287 276 282 319 295 298 303 294 307 283 288 299 295 312 317 322 327 324 324 320 312 307 306 310 315 308 306 309 304
326 324 352 8 359 347 334 280 245 259 266 275 269 274 235 226 261 237 250 242 240 270 99 270 274 309 310 289 286 307 307 314 317 327 332 335 335 328 329 332 333 327 327 321 329 333 330 322 311
324 320 339 352 347 353 349 292 268 276 265 272 275 262 254 261 235 239 236 249 235 166 171 161 25 338 314 295 320 316 316 313 321 323 320 329 326 326 326 325 325 323 326 329 331 331 330 326 321
331 301 333 342 335 345 358 333 311 289 302 271 243 242 235 219 216 218 196 147 120 164 277 312 297 306 324 313 310 311 312 319 317 323 327 324 324 320 315 314 317 319 320 320 326 322 328 329 323
291 297 301 329 340 331 332 284 289 322 0 306 254 241 220 224 225 223 182 182 225 257 305 323 307 298 310 305 310 320 316 307 310 324 324 319 321 324 327 323 320 318 320 319 316 319 324 320 324
299 296 282 288 308 299 303 50 124 153 81 22 302 265 257 238 243 210 220 246 262 268 287 296 303 302 298 300 300 307 314 318 321 329 332 330 328 325 321 323 320 314 310 308 309 312 319 320 318
279 288 283 293 262 290 251 157 8 104 139 143 254 274 278 283 276 241 262 291 291 290 286 269 282 289 295 297 305 311 313 316 320 323 326 329 325 323 324 322 326 323 313 310 308 306 307 307 314
287 262 275 275 260 269 255 260 259 270 211 220 256 259 275 278 282 284 277 295 270 272 288 288 291 292 296 297 304 309 318 315 316 315 316 317 313 319 318 321 320 316 312 309 309 311 308 308 310
284 279 257 267 260 246 248 257 252 267 283 229 247 240 287 287 286 299 303 300 303 290 291 297 289 292 288 297 302 311 312 314 315 313 313 312 316 320 320 320 318 317 318 312 309 304 310 305 308
297 285 274 252 244 242 271 236 248 263 293 280 308 258 280 288 293 305 306 318 313 304 289 292 289 284 284 290 301 305 307 308 309 307 313 312 314 315 315 316 316 315 314 309 307 303 309 304 302
311 299 287 258 252 263 250 272 252 278 278 293 291 287 303 309 299 305 309 317 325 311 301 295 288 272 279 291 297 300 306 309 311 317 316 316 316 313 314 317 316 316 316 315 311 308 306 301 296
302 304 293 291 252 252 244 250 257 254 267 288 288 304 305 307 296 296 302 316 318 311 298 293 290 280 280 291 297 303 308 309 310 313 312 315 314 315 316 315 316 322 321 316 314 309 301 292 291
292 303 310 291 264 255 256 264 263 242 267 282 300 290 284 301 297 295 298 310 305 301 293 287 286 282 290 306 310 309 309 316 315 315 314 315 318 317 314 313 323 321 322 315 311 307 296 286 290
290 283 291 298 291 277 264 261 272 266 275 286 285 284 279 282 288 289 299 298 297 289 277 282 291 294 299 310 311 309 310 313 316 317 316 318 317 317 316 315 319 321 322 318 309 299 295 289 288
288 294 296 293 287 301 307 280 264 279 275 287 294 294 284 283 290 298 295 298 303 291 284 298 303 305 309 310 311 310 309 317 316 314 314 312 313 315 314 315 317 317 319 321 311 302 296 289 281
284 288 296 298 280 288 294 285 272 280 284 290 303 279 290 292 289 289 308 307 305 305 303 304 302 308 307 309 314 316 324 321 318 316 314 312 312 315 320 318 320 318 317 321 323 305 296 289 286
268 276 290 298 284 280 294 288 279 282 284 290 290 282 298 301 304 310 315 313 314 316 309 305 305 308 311 317 321 316 320 327 320 317 309 307 316 319 317 318 316 317 319 322 320 313 297 288 285
254 256 257 275 286 298 297 289 286 286 288 288 288 288 296 306 302 308 307 304 307 311 309 307 309 311 313 311 318 328 322 316 316 319 315 324 320 318 317 316 319 318 320 323 321 312 299 288 282
254 254 256 258 271 286 288 287 281 283 280 279 280 282 301 303 298 304 302 301 299 307 306 305 309 310 314 313 323 323 322 323 319 312 321 323 319 315 314 318 320 320 320 320 319 310 301 291 282
264 263 271 265 269 271 279 289 286 280 275 276 286 293 301 305 307 307 306 305 301 300 303 305 307 313 314 317 323 326 322 320 326 322 316 314 315 318 319 317 316 317 317 321 321 313 304 296 289
264 266 272 282 273 279 280 266 285 286 294 295 292 295 299 299 302 302 301 299 298 305 306 306 304 310 307 317 322 325 324 317 320 317 318 319 319 317 316 319 315 317 317 320 320 316 307 297 292
264 266 265 266 271 266 274 269 274 288 290 292 295 297 299 300 299 300 306 304 302 306 306 309 312 316 320 321 323 324 323 315 324 321 318 318 316 322 319 319 313 315 317 319 319 314 308 304 295
262 263 265 269 276 280 281 286 287 289 287 289 291 290 298 302 304 303 304 308 311 312 313 315 319 321 320 323 326 322 328 320 321 320 319 321 319 318 316 315 314 314 315 317 316 314 311 308 302
271 271 274 272 277 278 282 292 292 283 281 284 283 286 292 297 308 309 314 317 318 317 316 319 319 320 320 323 323 322 322 320 322 323 322 318 319 315 314 314 315 313 315 315 315 312 311 310 303
275 278 284 283 275 281 300 284 302 290 285 286 292 296 301 302 308 316 314 318 318 316 317 318 320 318 318 322 321 321 319 319 321 322 321 319 320 313 314 314 313 314 314 313 311 311 311 309 302
292 291 285 304 305 274 268 292 305 284 286 296 291 305 305 302 304 315 312 315 318 318 317 318 317 318 318 323 321 316 318 318 322 321 320 322 318 316 317 316 316 314 313 312 311 311 311 307 300
285 281 286 302 299 315 307 321 308 299 298 308 305 314 312 313 306 310 314 310 314 313 316 314 314 318 317 319 320 316 318 321 323 322 321 320 321 315 315 315 316 314 312 311 310 311 309 302 296